SCP
0 0 0 0 0 0 0 0 0 0 0 0 0 0 0 0 0 0 0 1 1 1 1 1 1 1 1 1 1 1 1 1 1 1 1 1 1 1 1 1 1 0 0 0
0 0 0 0 0 0 -0 0 0 0 0 0 0 0 0 0 0 0 0 1 1 1 1 1 1 1 1 1 1 1 1 1 1 1 1 1 1 1 1 1 1 0 0 0
0 0 0 0 0 0 0 0 0 0 0 0 0 0 0 0 0 0 0 0 0 0 1 1 1 1 1 1 1 1 1 1 1 1 1 1 1 1 1 1 1 0 0 0
0 0 0 -0 0 0 0 0 0 0 0 0 0 0 0 0 0 0 0 0 0 0 0 1 1 1 0 0 0 0 0 1 1 1 1 1 1 1 1 1 1 0 0 0
-0 0 0 0 0 0 0 0 0 0 0 0 0 0 0 0 0 0 0 0 0 0 0 0 0 0 0 0 0 0 0 0 1 1 1 1 1 1 1 1 1 1 0 0
-0 0 0 0 0 0 0 0 0 0 0 0 0 0 0 0 0 0 0 0 0 0 0 0 0 0 0 0 0 0 0 0 1 1 1 1 1 1 1 1 1 1 0 0
0 0 0 0 0 0 0 0 0 0 0 0 0 0 0 0 0 0 0 0 0 0 0 0 0 0 0 0 0 0 0 0 0 1 1 1 1 1 1 1 1 1 0 0
0 0 0 0 0 0 0 0 0 0 0 0 0 0 0 0 0 0 0 0 0 0 0 0 0 0 0 0 0 0 0 0 0 0 1 1 1 1 1 1 1 1 0 0
0 0 0 0 0 0 0 0 0 0 0 0 0 0 0 0 0 0 0 0 0 0 0 0 0 0 0 0 0 0 0 0 0 0 1 1 1 1 1 1 1 1 0 0
0 0 0 0 0 0 0 0 0 0 0 0 0 0 0 0 0 0 0 0 0 0 0 0 0 0 0 0 0 0 0 0 0 0 0 1 1 1 1 1 1 1 1 1
0 0 0 0 0 0 0 0 0 0 0 0 0 0 0 0 0 0 0 0 0 0 0 0 0 0 0 0 0 0 0 0 0 0 0 0 0 0 0 0 0 0 1 1
0 0 0 0 0 0 0 0 0 0 0 0 0 0 0 0 0 0 0 0 0 0 0 0 0 0 0 0 0 0 0 0 0 0 0 0 0 0 0 0 0 0 0 0
0 0 0 0 0 0 0 0 0 0 0 0 0 0 0 0 0 0 0 0 0 0 0 0 0 0 0 0 0 0 0 0 0 0 0 0 0 0 0 0 0 0 0 0
0 0 0 0 0 0 0 0 0 0 0 0 0 0 0 0 0 0 0 0 0 0 0 0 0 0 0 0 0 0 0 0 0 0 0 0 0 0 1 1 1 1 0 0
0 0 0 0 0 0 0 0 0 0 0 0 0 0 0 0 0 0 0 0 0 0 0 0 0 0 0 0 0 0 0 0 0 0 0 0 0 0 1 1 1 1 1 1
0 0 0 0 0 0 0 0 0 0 0 0 0 0 0 0 0 0 0 0 0 0 0 0 1 1 1 0 0 0 1 1 1 1 1 0 0 1 1 1 1 1 1 1
0 0 0 0 0 0 0 0 0 0 0 0 0 0 0 0 0 0 0 0 0 0 1 1 1 1 1 1 1 1 1 1 1 1 1 1 1 1 1 1 1 1 1 1
0 0 0 0 0 0 0 0 0 0 0 0 0 0 0 0 0 0 0 1 1 1 1 1 1 1 1 1 1 1 1 1 1 1 1 1 1 1 1 1 1 1 1 1
0 0 0 0 0 0 0 0 0 0 0 0 0 0 0 0 0 0 1 1 1 1 1 1 1 1 1 1 1 1 1 1 1 1 0 1 1 1 1 1 1 1 1 1
0 0 0 0 0 0 0 0 0 0 0 0 0 0 0 0 0 0 0 1 1 1 1 1 1 1 1 1 1 1 1 1 1 1 1 1 1 1 1 1 1 1 1 1
0 0 0 0 0 0 0 0 0 0 0 0 0 0 0 0 1 0 0 0 0 0 0 1 1 1 1 1 1 1 1 1 1 1 1 1 1 1 1 1 1 1 1 1
0 0 0 0 0 0 0 0 0 0 0 0 0 0 0 0 0 0 0 0 0 0 0 0 1 1 1 1 1 1 1 1 1 1 1 0 0 0 0 0 1 1 1 0
0 0 0 0 0 0 0 0 0 0 0 0 0 0 0 0 0 0 0 0 0 0 0 0 0 1 1 1 1 1 1 1 1 0 0 0 0 0 0 0 0 0 0 0
0 0 0 0 0 0 0 0 0 0 0 0 0 0 0 0 0 0 0 0 0 0 0 0 0 0 0 0 0 0 0 0 0 0 0 0 0 0 0 0 0 0 0 0
0 0 0 0 0 0 0 0 0 0 0 0 0 0 0 0 0 0 0 0 0 0 0 0 0 0 0 0 0 0 0 0 0 0 0 0 0 0 0 0 0 0 0 0
0 0 0 0 0 0 0 0 0 0 0 0 0 0 0 0 0 0 0 0 0 0 0 0 0 0 0 0 0 0 0 0 0 0 0 0 0 0 0 0 0 0 0 0
Wind_Speed
13 13 14 13 12 9 7 8 8 5 2 6 8 8 4 5 7 7 7 8 9 9 9 9 9 10 11 11 11 12 11 11 10 8 8 7 7 6 6 6 7 8 7 7
11 16 15 10 8 10 11 11 9 5 1 6 8 9 4 5 7 6 7 8 9 9 10 10 10 11 12 12 11 11 12 12 11 9 7 6 6 6 6 5 7 8 8 8
17 8 9 11 12 12 12 12 8 6 5 6 8 10 5 6 6 7 8 8 9 10 11 11 11 11 11 12 12 10 11 12 12 11 7 6 6 5 6 7 7 8 9 8
15 10 9 12 13 13 12 8 7 8 9 6 5 9 3 4 7 8 9 9 10 10 11 11 11 11 11 11 10 10 11 11 12 12 11 12 9 9 9 7 7 8 8 8
11 10 12 14 13 12 10 4 7 8 10 11 8 9 4 4 5 6 9 10 10 10 11 11 11 11 10 10 10 10 11 11 12 12 13 12 10 8 7 7 8 8 8 8
10 7 10 11 10 10 7 6 7 9 10 12 6 8 6 0 1 2 6 9 10 10 11 10 10 10 9 9 9 10 11 11 11 12 12 12 12 10 9 9 9 9 7 7
13 13 11 10 11 10 11 11 9 10 9 8 2 7 5 3 1 2 4 8 10 11 11 11 11 11 10 10 11 11 11 11 11 12 12 12 12 12 12 11 10 9 8 8
13 13 13 11 13 10 12 13 10 8 8 6 4 7 2 2 1 2 4 6 9 10 11 11 11 10 10 10 11 11 11 11 11 11 11 11 12 9 9 11 9 9 8 8
9 8 7 8 9 11 11 12 11 11 11 9 6 4 3 3 4 5 6 7 9 10 11 11 11 11 10 10 11 11 11 11 11 11 11 10 11 10 10 10 9 8 7 7
6 6 7 7 8 9 10 8 7 10 9 10 8 6 2 2 2 5 6 7 8 10 11 11 11 11 10 10 10 10 11 11 11 11 10 9 10 10 9 9 10 9 9 8
9 8 7 9 11 11 10 10 9 9 9 10 8 3 3 0 1 3 5 6 8 10 10 10 10 10 10 10 10 10 10 11 10 11 11 10 11 11 11 10 10 9 9 10
8 8 8 9 4 5 11 11 11 10 10 9 10 5 3 1 1 2 3 6 7 9 10 10 11 11 11 11 10 10 10 11 11 11 11 11 10 10 10 10 10 10 10 10
4 6 9 9 9 9 10 11 12 12 11 10 11 5 5 3 1 2 3 6 8 9 10 10 11 11 11 10 10 10 10 11 11 11 11 11 11 10 10 10 10 10 10 10
5 7 10 10 5 5 10 11 11 12 11 12 12 10 4 3 2 2 4 6 8 9 10 11 11 11 10 10 10 10 10 10 10 10 11 11 11 10 10 9 9 9 9 9
5 8 10 10 7 8 10 12 12 14 15 15 12 11 6 3 3 1 3 6 8 9 10 11 11 10 11 10 10 10 9 9 10 10 10 10 10 10 9 9 9 8 8 9
3 6 8 10 10 11 13 13 14 15 15 16 15 12 4 3 2 1 2 6 8 9 10 10 11 11 11 10 10 10 9 9 9 10 9 9 9 9 9 9 8 8 8 8
4 5 8 11 9 11 15 13 14 14 13 14 15 10 5 4 3 1 1 4 6 8 9 10 10 10 10 10 10 10 9 9 9 8 8 8 9 9 9 9 9 9 9 9
6 7 7 9 8 14 5 2 6 10 12 11 10 6 4 3 2 2 1 1 3 5 6 7 8 9 9 9 9 9 9 9 9 8 8 8 8 8 8 8 8 8 7 8
5 7 7 8 11 11 6 2 4 8 9 5 5 5 3 1 3 3 4 3 3 4 5 5 6 8 8 9 9 9 9 8 8 7 7 6 6 7 7 7 7 7 6 6
5 7 8 9 10 10 1 2 4 7 8 2 3 3 2 4 5 3 5 5 5 5 5 6 6 7 7 7 9 9 9 8 7 6 5 5 5 5 5 5 5 4 5 5
6 7 9 11 11 7 3 4 5 8 1 6 5 3 3 2 3 5 6 6 6 7 7 7 8 7 6 7 8 8 8 6 6 6 6 5 4 4 4 3 3 3 3 3
5 5 7 7 9 5 4 4 4 6 7 5 5 3 3 5 7 7 7 8 8 8 9 9 9 9 8 8 9 9 7 7 7 6 6 6 5 4 4 4 3 3 2 3
4 4 4 4 3 4 5 5 6 5 5 4 2 2 5 7 8 9 9 9 9 10 10 10 11 11 10 10 9 10 8 7 8 8 8 7 6 5 4 4 4 3 2 2
2 2 5 5 4 3 5 5 4 4 3 1 1 3 6 9 11 11 10 10 10 10 11 11 12 12 12 11 11 9 8 8 9 9 8 7 7 6 6 3 3 3 2 2
3 3 4 6 3 3 3 5 5 4 3 3 4 6 9 13 13 12 11 11 10 10 11 11 12 13 12 11 11 10 9 9 10 9 8 7 7 6 6 6 6 5 5 4
3 4 4 3 3 2 3 5 5 4 5 8 11 12 12 13 14 13 12 11 11 12 11 12 13 13 12 12 11 10 8 8 8 7 6 6 5 5 5 5 6 8 6 6
Wind_Direction
193 214 218 218 228 262 267 260 256 263 306 279 273 278 269 202 217 215 205 196 192 189 181 181 181 182 182 182 184 186 190 183 176 174 176 176 183 188 186 186 181 182 186 182
197 222 226 229 230 244 246 249 251 247 272 281 287 281 259 208 219 221 211 201 195 186 177 178 180 182 186 185 188 189 189 183 181 179 178 178 176 185 186 186 180 187 188 185
215 214 209 217 217 226 236 245 259 283 290 244 275 264 216 185 206 211 212 205 198 193 185 182 184 187 190 192 191 189 186 182 182 175 170 170 168 180 182 184 183 188 188 186
228 221 208 217 222 226 234 240 264 272 273 268 279 290 270 180 206 208 206 202 197 192 189 186 187 188 193 193 190 189 188 185 182 177 180 182 185 188 189 185 177 179 185 183
213 213 213 222 225 224 242 257 259 266 268 274 251 273 293 168 223 207 198 198 196 188 186 186 189 190 192 189 188 188 188 187 184 184 183 186 192 194 187 182 172 181 179 184
228 206 224 229 224 223 224 227 239 246 254 256 265 277 286 105 263 202 182 189 192 185 182 182 183 185 186 184 186 187 188 187 182 184 187 191 193 193 188 185 178 185 180 185
217 217 219 229 222 206 216 229 232 229 230 248 210 265 284 7 347 257 194 183 185 184 180 179 181 182 183 185 185 183 184 185 184 186 191 195 196 195 194 190 188 189 184 185
209 210 206 212 225 217 215 231 244 256 258 259 212 254 303 55 82 194 185 176 178 181 180 179 180 181 180 181 180 180 181 184 186 186 189 193 194 196 196 196 190 191 191 187
213 206 174 205 221 234 217 228 251 263 268 270 253 247 245 177 176 172 171 173 178 179 177 177 177 180 179 178 180 181 181 184 186 186 186 188 191 197 194 189 197 194 190 185
235 222 186 184 201 217 248 238 230 249 259 263 255 249 247 194 164 171 179 181 177 175 175 173 175 179 177 178 179 181 181 184 185 186 188 186 190 194 192 192 196 194 192 190
236 236 200 196 213 207 204 219 234 248 260 269 273 268 71 98 174 184 181 181 175 176 174 170 171 174 173 175 175 179 181 182 186 187 190 191 191 193 193 195 195 193 192 190
221 243 237 218 209 262 232 231 228 241 245 252 273 280 96 128 189 168 173 173 173 173 170 167 166 168 171 174 175 177 178 183 186 185 187 189 192 193 193 194 194 191 191 194
192 229 231 212 201 204 229 233 238 245 255 252 258 256 134 155 191 172 174 169 169 173 170 167 166 168 170 173 176 177 179 182 183 183 185 187 190 191 193 193 192 191 192 196
245 238 250 256 258 212 221 226 232 239 246 252 252 268 230 234 247 199 179 173 172 172 173 173 170 172 171 173 175 179 181 181 180 181 183 186 191 192 192 193 193 193 194 196
253 243 249 267 278 264 253 246 236 241 253 264 268 267 270 275 297 280 196 176 174 173 175 176 175 172 173 173 175 179 180 179 179 180 183 184 187 189 190 190 192 192 196 199
258 266 257 253 254 255 256 252 249 247 252 257 263 267 278 282 296 265 197 183 180 177 176 175 174 171 173 174 175 175 176 175 177 181 183 180 181 182 184 186 187 189 196 201
233 246 258 255 249 257 249 246 248 248 247 253 256 263 255 265 274 288 187 188 181 175 173 172 172 171 172 173 172 172 171 169 171 175 178 176 177 179 183 185 187 190 192 195
244 245 251 259 251 247 255 296 270 266 261 262 265 268 272 291 27 40 26 175 164 163 162 164 165 165 166 165 165 167 165 166 168 171 174 175 177 178 181 185 188 191 192 194
232 239 248 251 249 255 240 262 289 274 264 272 268 258 258 153 169 123 65 64 97 118 129 139 149 152 155 158 158 156 156 158 160 163 165 169 173 176 180 185 189 189 191 195
195 228 245 244 254 255 245 38 327 271 246 8 327 279 239 218 234 123 85 79 85 94 103 113 121 129 137 147 149 147 146 148 150 150 147 147 155 164 171 177 181 180 189 198
201 214 235 245 249 257 9 349 276 247 332 8 337 300 259 273 30 81 93 88 89 92 95 99 102 106 112 125 132 133 131 132 132 129 127 126 132 136 138 146 159 170 179 177
247 237 229 239 244 242 28 321 303 338 345 334 338 357 53 77 94 97 96 94 92 93 94 93 92 89 91 103 113 112 111 115 117 114 110 108 108 110 115 120 121 133 149 148
251 292 292 269 286 15 357 332 328 318 311 323 354 63 109 112 110 104 99 95 91 91 92 91 92 89 85 86 93 97 96 101 105 103 99 97 97 92 93 108 117 123 129 136
218 275 263 263 268 330 345 344 340 338 330 344 79 118 124 119 112 107 100 94 90 88 89 90 89 87 84 84 86 89 93 96 96 96 95 94 92 90 79 62 69 76 78 98
311 262 259 263 295 322 5 3 1 5 27 65 92 105 111 111 108 104 98 92 88 84 83 84 85 84 81 80 80 81 85 90 92 91 91 90 86 82 79 70 47 42 49 35
297 285 279 302 10 355 356 2 9 53 80 94 98 91 91 98 100 98 94 91 90 87 86 84 82 81 79 76 75 75 79 84 89 90 85 85 86 86 88 94 88 59 59 69